Weather History for Muscatine, IA

Change the Weather History Date:

Thursday, November 8, 2012

  Actual Average Record
Temperature  
Mean Temperature 44 °F -  
Max Temperature 55 °F 51 °F 80 °F (1999)
Min Temperature 32 °F 34 °F 2 °F (1991)
Degree Days  
Heating Degree Days 22    
Moisture  
Dew Point 35 °F    
Average Humidity 69    
Maximum Humidity 81    
Minimum Humidity 47    
Precipitation  
Precipitation 0.00 in - - ()
Sea Level Pressure  
Sea Level Pressure 30.10 in    
Wind  
Wind Speed 5 mph (SSE)    
Max Wind Speed 14 mph    
Max Gust Speed 17 mph    
Visibility 9 miles    
Events      
Averages and records for this station are not official NWS values.
T = Trace of Precipitation, MM = Missing Value Source: NWS Daily Summary

Daily Weather History Graph

Daily Weather History Graph

Search for Another Location

Airport:

Trip Planner

Search our weather history database for the weather conditions in past years. The results will help you decide how hot, cold, wet, or windy it might be!

Date:

Astronomy

Nov. 08, 2012 Rise Set
Actual Time 6:45 AM CST 4:51 PM CST
Civil Twilight 6:15 AM CST 5:20 PM CST
Nautical Twilight 5:42 AM CST 5:53 PM CST
Astronomical Twilight 5:10 AM CST 6:25 PM CST
Moon 12:36 AM CST (11/8) 1:35 PM CST (11/8)
Length of Visible Light 11h 04m
Length of Day
10h 06m
Waning Crescent, 32% of the Moon is Illuminated
Nov 8
Waning Crescent
Nov 13
New
Nov 20
First Quarter
Nov 28
Full
Dec 6
Last Quarter

Hourly Weather History & Observations

Time (CST) Temp. Windchill Dew Point Humidity Pressure Visibility Wind Dir Wind Speed Gust Speed Precip Events Conditions
12:15 AM 41.0 °F 38.0 °F 35.6 °F 81% 30.16 in 10.0 mi SSE 4.6 mph - N/A   Overcast
12:35 AM 39.2 °F 35.9 °F 33.8 °F 81% 30.17 in 10.0 mi South 4.6 mph - N/A   Mostly Cloudy
12:55 AM 39.2 °F 37.0 °F 33.8 °F 81% 30.17 in 10.0 mi South 3.5 mph - N/A   Unknown
1:15 AM 39.2 °F - 33.8 °F 81% 30.17 in 10.0 mi Calm Calm - N/A   Unknown
1:35 AM 39.2 °F - 33.8 °F 81% 30.17 in 10.0 mi Calm Calm - N/A   Unknown
1:55 AM 39.2 °F - 33.8 °F 81% 30.17 in 10.0 mi Calm Calm - N/A   Unknown
2:15 AM 41.0 °F 39.0 °F 35.6 °F 81% 30.17 in 10.0 mi South 3.5 mph - N/A   Overcast
2:35 AM 41.0 °F 39.0 °F 35.6 °F 81% 30.17 in 10.0 mi SSE 3.5 mph - N/A   Overcast
2:55 AM 41.0 °F 39.0 °F 35.6 °F 81% 30.17 in 10.0 mi South 3.5 mph - N/A   Overcast
3:15 AM 39.2 °F 37.0 °F 33.8 °F 81% 30.17 in 10.0 mi SSE 3.5 mph - N/A   Overcast
3:35 AM 39.2 °F 37.0 °F 33.8 °F 81% 30.17 in 10.0 mi South 3.5 mph - N/A   Unknown
3:55 AM 37.4 °F 33.8 °F 32.0 °F 81% 30.17 in 10.0 mi South 4.6 mph - N/A   Unknown
4:15 AM 35.6 °F 32.8 °F 30.2 °F 81% 30.17 in 7.0 mi South 3.5 mph - N/A   Unknown
4:35 AM 35.6 °F 32.8 °F 30.2 °F 81% 30.17 in 7.0 mi South 3.5 mph - N/A   Clear
5:15 AM 35.6 °F 31.7 °F 30.2 °F 81% 30.16 in 7.0 mi SSE 4.6 mph - N/A   Clear
5:35 AM 35.6 °F - 30.2 °F 81% 30.16 in 7.0 mi Calm Calm - N/A   Clear
5:55 AM 33.8 °F - 28.4 °F 81% 30.16 in 5.0 mi Calm Calm - N/A   Haze
6:15 AM 33.8 °F - 28.4 °F 81% 30.16 in 5.0 mi Calm Calm - N/A   Clear
6:35 AM 33.8 °F - 28.4 °F 81% 30.16 in 3.0 mi Calm Calm - N/A   Clear
6:55 AM 33.8 °F - 28.4 °F 81% 30.16 in 2.0 mi Calm Calm - N/A   Haze
7:15 AM 32.0 °F - 26.6 °F 80% 30.16 in 3.0 mi Calm Calm - N/A   Haze
7:35 AM 33.8 °F - 28.4 °F 81% 30.16 in 4.0 mi Calm Calm - N/A   Haze
7:55 AM 35.6 °F - 30.2 °F 81% 30.17 in 5.0 mi Calm Calm - N/A   Haze
8:15 AM 39.2 °F - 33.8 °F 81% 30.17 in 7.0 mi Calm Calm - N/A   Unknown
8:35 AM 41.0 °F 36.4 °F 33.8 °F 76% 30.17 in 10.0 mi SSE 6.9 mph - N/A   Clear
8:55 AM 42.8 °F 38.6 °F 35.6 °F 76% 30.17 in 10.0 mi SSE 6.9 mph - N/A   Clear
9:15 AM 44.6 °F 38.8 °F 35.6 °F 71% 30.17 in 10.0 mi South 11.5 mph - N/A   Clear
9:35 AM 46.4 °F 40.7 °F 35.6 °F 66% 30.16 in 10.0 mi South 12.7 mph - N/A   Clear
9:55 AM 46.4 °F 41.5 °F 35.6 °F 66% 30.16 in 10.0 mi SSE 10.4 mph - N/A   Clear
10:15 AM 48.2 °F - 35.6 °F 62% 30.16 in 10.0 mi SSE 10.4 mph - N/A   Clear
10:35 AM 48.2 °F - 35.6 °F 62% 30.15 in 10.0 mi South 13.8 mph - N/A   Clear
10:55 AM 50.0 °F - 35.6 °F 58% 30.15 in 10.0 mi South 12.7 mph - N/A   Clear
11:15 AM 50.0 °F - 35.6 °F 58% 30.14 in 10.0 mi SSE 11.5 mph - N/A   Clear
11:35 AM 51.8 °F - 35.6 °F 54% 30.13 in 10.0 mi South 12.7 mph - N/A   Clear
11:55 AM 51.8 °F - 35.6 °F 54% 30.12 in 10.0 mi South 13.8 mph - N/A   Clear
12:15 PM 53.6 °F - 35.6 °F 51% 30.10 in 10.0 mi SSE 12.7 mph 17.3 mph N/A   Clear
12:35 PM 53.6 °F - 35.6 °F 51% 30.09 in 10.0 mi SSE 11.5 mph 17.3 mph N/A   Clear
12:55 PM 55.4 °F - 35.6 °F 47% 30.08 in 10.0 mi South 9.2 mph 16.1 mph N/A   Clear
1:15 PM 55.4 °F - 35.6 °F 47% 30.07 in 10.0 mi SSE 13.8 mph - N/A   Clear
1:35 PM 55.4 °F - 35.6 °F 47% 30.07 in 10.0 mi SSE 10.4 mph - N/A   Clear
1:55 PM 55.4 °F - 35.6 °F 47% 30.06 in 10.0 mi SSE 10.4 mph - N/A   Clear
2:15 PM 55.4 °F - 35.6 °F 47% 30.05 in 10.0 mi SSE 11.5 mph 17.3 mph N/A   Clear
2:35 PM 55.4 °F - 35.6 °F 47% 30.04 in 10.0 mi SSE 11.5 mph - N/A   Clear
2:55 PM 55.4 °F - 35.6 °F 47% 30.04 in 10.0 mi SSE 12.7 mph - N/A   Clear
3:15 PM 55.4 °F - 35.6 °F 47% 30.04 in 10.0 mi SSE 12.7 mph - N/A   Clear
3:35 PM 55.4 °F - 37.4 °F 51% 30.03 in 10.0 mi SSE 11.5 mph 17.3 mph N/A   Clear
3:55 PM 55.4 °F - 35.6 °F 47% 30.03 in 10.0 mi SSE 9.2 mph - N/A   Clear
4:15 PM 53.6 °F - 35.6 °F 51% 30.03 in 10.0 mi SSE 12.7 mph 17.3 mph N/A   Clear
4:35 PM 53.6 °F - 37.4 °F 54% 30.02 in 10.0 mi SSE 9.2 mph - N/A   Clear
4:55 PM 51.8 °F - 35.6 °F 54% 30.02 in 10.0 mi SSE 8.1 mph - N/A   Clear
5:15 PM 50.0 °F - 37.4 °F 62% 30.02 in 10.0 mi SE 5.8 mph - N/A   Clear
5:35 PM 48.2 °F - 37.4 °F 66% 30.02 in 10.0 mi SE 5.8 mph - N/A   Clear
5:55 PM 48.2 °F - 37.4 °F 66% 30.02 in 10.0 mi SE 8.1 mph - N/A   Clear
6:15 PM 48.2 °F - 37.4 °F 66% 30.02 in 10.0 mi SE 8.1 mph - N/A   Clear
6:35 PM 48.2 °F - 37.4 °F 66% 30.02 in 10.0 mi SE 8.1 mph - N/A   Clear
6:55 PM 48.2 °F - 37.4 °F 66% 30.02 in 10.0 mi SE 6.9 mph - N/A   Clear
7:15 PM 46.4 °F 42.4 °F 37.4 °F 71% 30.01 in 10.0 mi SE 8.1 mph - N/A   Clear
7:35 PM 48.2 °F - 37.4 °F 66% 30.01 in 10.0 mi SE 8.1 mph - N/A   Clear
7:55 PM 46.4 °F 43.5 °F 37.4 °F 71% 30.01 in 10.0 mi SSE 5.8 mph - N/A   Clear
8:15 PM 46.4 °F 43.5 °F 37.4 °F 71% 30.01 in 10.0 mi SE 5.8 mph - N/A   Clear
8:35 PM 46.4 °F 42.9 °F 37.4 °F 71% 30.01 in 10.0 mi SE 6.9 mph - N/A   Clear
8:55 PM 46.4 °F - 35.6 °F 66% 30.02 in 10.0 mi Calm Calm - N/A   Clear
9:15 PM 42.8 °F - 35.6 °F 76% 30.03 in 10.0 mi Calm Calm - N/A   Clear
9:35 PM 41.0 °F - 35.6 °F 81% 30.03 in 10.0 mi Calm Calm - N/A   Clear
9:55 PM 41.0 °F - 35.6 °F 81% 30.04 in 10.0 mi Calm Calm - N/A   Clear
10:15 PM 39.2 °F - 33.8 °F 81% 30.03 in 7.0 mi Calm Calm - N/A   Clear
10:35 PM 42.8 °F 40.1 °F 35.6 °F 76% 30.03 in 7.0 mi ESE 4.6 mph - N/A   Unknown
10:55 PM 42.8 °F 39.3 °F 35.6 °F 76% 30.02 in 10.0 mi SE 5.8 mph - N/A   Unknown
11:15 PM 42.8 °F 40.1 °F 37.4 °F 81% 30.02 in 10.0 mi SSE 4.6 mph - N/A   Unknown
11:35 PM 42.8 °F - 35.6 °F 76% 30.02 in 7.0 mi Calm Calm - N/A   Clear
11:55 PM 37.4 °F - 32.0 °F 81% 30.02 in 7.0 mi Calm Calm - N/A   Clear